Flag for Poland Weather past 2 weeks in Bydgoszcz, Poland

Now
46 °F

Sprinkles. Overcast.


Feels Like: 43 °F
Forecast: 36 / 46 °F
Wind: 6 mph from West

Location: Torun

Current Time: Mar 30, 2015 at 3:54:59 PM

Latest Report: Mar 30, 2015 at 3:00 PM


Visibility: 25 mi

Pressure: 29.18 "Hg

Humidity: 66%

Dew point: 35 °F

Location of BydgoszczLocation

Historic Weather in Bydgoszcz — Graph

°F

Bydgoszcz temperature yesterday

Maximum temperature yesterday: 48 °F (at 7:00 PM)
Minimum temperature yesterday: 28 °F (at 1:00 AM)
Average temperature yesterday: 40 °F

Past Weeks' High & Low Weather Summary

 TemperatureHumidityPressure
High61 °F (Mar 25, 2:00 PM)100% (Mar 28, 3:00 AM)30.71 "Hg (Mar 28, 3:00 AM)
Low21 °F (Mar 20, 6:00 AM)21% (Mar 18, 3:00 PM)29.00 "Hg (Mar 30, 6:00 AM)
Average42 °F65%30.11 "Hg
* Reported Mar 15 1:00 PM — Mar 30 2:00 PM, Bydgoszcz, Weather by CustomWeather, © 2015

Note: Actual official high and low records may vary slightly from our data, if they occured in-between our weather recording intervals... More about our weather records

Advertising

Bydgoszcz weather history for previous 24 hours

 ConditionsComfort  
Time TempWeatherWind HumidityBarometerVisibility
2:00 PM
Mon, Mar 30
49 °FPartly sunny.6 mph53%29.15 "Hg28 mi
1:00 PM47 °FPartly sunny.7 mph58%29.12 "Hg31 mi
12:00 PM46 °FOvercast.6 mph65%29.12 "Hg31 mi
11:00 AM44 °FSprinkles. Overcast.7 mph74%29.09 "Hg12 mi
10:00 AM45 °FOvercast.6 mph74%29.06 "Hg28 mi
9:00 AM44 °FLight rain. Overcast.8 mph79%29.06 "Hg15 mi
8:00 AM43 °FOvercast.6 mph80%29.06 "Hg28 mi
7:00 AM43 °FOvercast.7 mph80%29.03 "Hg31 mi
6:00 AM45 °FOvercast.5 mph88%29.00 "Hg31 mi
5:00 AM47 °FRain. Low clouds.6 mph92%29.03 "Hg5 mi
4:00 AM47 °FRain. Low clouds.6 mph94%29.03 "Hg4 mi
3:00 AM47 °FLight rain. Overcast.6 mph94%29.09 "Hg6 mi
2:00 AM47 °FLow clouds.5 mph94%29.15 "Hg4 mi
1:00 AM46 °FLight rain. Overcast.5 mph94%29.21 "Hg6 mi
12:00 AM47 °FLow clouds.5 mph93%29.23 "Hg6 mi
10:00 PM
Sun, Mar 29
48 °FLight rain. Low clouds.6 mph94%29.35 "Hg3 mi
9:00 PM48 °FLight rain. Low clouds.3 mph95%29.38 "Hg2 mi
8:00 PM48 °FLight rain. Low clouds.3 mph93%29.41 "Hg2 mi
7:00 PM48 °FLight rain. Overcast.5 mph91%29.44 "Hg3 mi
6:00 PM48 °FFog.3 mph89%29.44 "Hg4 mi
5:00 PM47 °FFog.5 mph90%29.47 "Hg4 mi
4:00 PM45 °FLow clouds.5 mph92%29.53 "Hg4 mi
3:00 PM45 °FLight rain. Overcast.5 mph89%29.56 "Hg2 mi
Weather by CustomWeather, © 2015

See weather overviewHow to use our weather pages